Tracking 19817 objects as of 19-Aug-2019
HD Live streaming from Space Station
objects crossing your sky now

COSMOS 2251 DEB

Track COSMOS 2251 DEB now!
10-day predictions


NORAD ID: 35970
Int'l Code: 1993-036AVL
Perigee: 674.0 km
Apogee: 732.5 km
Inclination: 74.0 °
Period: 98.7 minutes
Semi major axis: 7074 km
RCS: 0.0106 m2 (small)
Launch date: June 16, 1993
Source: Commonwealth of Independent States (former USSR) (CIS)
Launch site: PLESETSK MISSILE AND SPACE COMPLEX (PKMTR)

Note: This is SATELLITE DEBRIS
aabbcc
Your satellite tracking list
Your tracking list is empty




NASA's NSSDC Master Catalog

Two Line Element Set (TLE):
1 35970U 93036AVL 19230.65068805 +.00000545 +00000-0 +12106-3 0  9995
2 35970 074.0429 352.4209 0041340 322.4688 037.3592 14.59088607529072
Source of the keplerian elements: AFSPC